Voltar ao catálogo

IRIDIUM 914

AtivoComunicaçõesPO
NORAD 24836·PAYLOAD·🇺🇸 United States

Lançado Jun 18, 1997 de Baikonur Cosmodrome

Loading…

Próximas Passagens (próximas 24 horas)

TLE

AtualizadoSource: Space-Track

Época: Sep 14, 2026, 13:12 UTC

1 24836U 97030A   26257.55046742  .00000282  00000-0  81171-4 0  9991
2 24836  86.3993 350.1948 0003201 119.6652 240.4866 14.41285786672561

Acompanhe IRIDIUM 914 em tempo real com AllMySat

Download on the App Store